AFR841 TFFF-LFPG

Flight info

Callsign AFR841
Flight time N/A
Altitude 33000
Route SESPO2R SESPO DCT DRDGE/M084F330 DCT 27N050W 36N040W 4000N03430W 43N030W 47N020W 48N015W DCT TAMEL DCT EVBAK DCT RATKA/N0485F330 DCT LARLA DCT GANTO DCT JSY UY111 INGOR UM25 LUKIP
Aircraft B77W/H-SDE2E3FGHIJ3J5M1P2RWXYZ/LB1D1

Departure

Time N/A
Airport Martinique Aimé Césaire International Airport (TFFF)

Arrival

Time 2026-05-09 04:25
Airport Charles de Gaulle International Airport (LFPG)
Time Latitude Longitude Altitude Speed Heading
2026-05-09 03:44 49.30426 -3.28204 35021 ft 467 kts 99°
2026-05-09 03:44 49.29818 -3.18389 35025 ft 465 kts 99°
2026-05-09 03:45 49.29195 -3.08553 35026 ft 463 kts 99°
2026-05-09 03:45 49.28565 -2.98738 35032 ft 463 kts 99°
2026-05-09 03:46 49.27924 -2.88922 35029 ft 463 kts 99°
2026-05-09 03:46 49.27279 -2.79100 35024 ft 464 kts 99°
2026-05-09 03:47 49.26621 -2.69266 35028 ft 465 kts 99°
2026-05-09 03:47 49.25956 -2.59425 35022 ft 465 kts 99°
2026-05-09 03:48 49.25282 -2.49571 35027 ft 466 kts 99°
2026-05-09 03:48 49.24598 -2.39707 35022 ft 466 kts 99°
2026-05-09 03:49 49.23910 -2.29839 35021 ft 466 kts 99°
2026-05-09 03:49 49.23210 -2.19975 35021 ft 466 kts 99°
2026-05-09 03:50 49.22504 -2.10116 35021 ft 467 kts 99°
2026-05-09 03:50 49.22438 -2.00131 35022 ft 472 kts 89°
2026-05-09 03:51 49.23274 -1.90197 35029 ft 474 kts 86°
2026-05-09 03:51 49.24183 -1.80198 35031 ft 475 kts 86°
2026-05-09 03:52 49.25057 -1.70186 35042 ft 475 kts 86°
2026-05-09 03:52 49.25902 -1.60152 35045 ft 475 kts 86°
2026-05-09 03:53 49.26732 -1.50113 35046 ft 476 kts 86°
2026-05-09 03:53 49.27562 -1.40056 35044 ft 476 kts 86°
2026-05-09 03:54 49.28381 -1.29988 35046 ft 477 kts 86°
2026-05-09 03:54 49.29191 -1.19918 35048 ft 477 kts 86°
2026-05-09 03:55 49.29999 -1.09828 35045 ft 477 kts 86°
2026-05-09 03:55 49.30792 -0.99726 35047 ft 478 kts 86°
2026-05-09 03:56 49.31578 -0.89606 35057 ft 478 kts 86°
2026-05-09 03:56 49.32360 -0.79489 35049 ft 478 kts 86°
2026-05-09 03:57 49.33129 -0.69391 35036 ft 471 kts 87°
2026-05-09 03:57 49.33501 -0.64471 34892 ft 461 kts 87°
2026-05-09 03:57 49.33865 -0.59625 34495 ft 454 kts 87°
2026-05-09 03:58 49.34222 -0.54846 34026 ft 449 kts 87°
2026-05-09 03:58 49.34572 -0.50113 33475 ft 445 kts 87°
2026-05-09 03:58 49.34918 -0.45422 32963 ft 440 kts 87°
2026-05-09 03:58 49.35260 -0.40781 32458 ft 436 kts 87°
2026-05-09 03:59 49.35595 -0.36177 31977 ft 432 kts 88°
2026-05-09 03:59 49.35925 -0.31620 31483 ft 428 kts 87°
2026-05-09 03:59 49.36223 -0.27098 31005 ft 423 kts 90°
2026-05-09 03:59 49.36281 -0.22624 30530 ft 417 kts 96°
2026-05-09 04:00 49.36043 -0.18217 30049 ft 413 kts 99°
2026-05-09 04:00 49.35754 -0.13856 29492 ft 410 kts 99°
2026-05-09 04:00 49.35466 -0.09525 29000 ft 406 kts 99°
2026-05-09 04:00 49.35185 -0.05236 28513 ft 403 kts 99°
2026-05-09 04:01 49.34908 -0.00979 28036 ft 399 kts 99°
2026-05-09 04:01 49.34640 0.03174 27567 ft 397 kts 99°
2026-05-09 04:01 49.34371 0.07384 27089 ft 394 kts 99°
2026-05-09 04:01 49.34101 0.11607 26619 ft 392 kts 99°
2026-05-09 04:02 49.33833 0.15750 26155 ft 390 kts 99°
2026-05-09 04:02 49.33567 0.19872 25693 ft 388 kts 99°
2026-05-09 04:02 49.33302 0.23928 25247 ft 386 kts 99°
2026-05-09 04:02 49.33034 0.28020 24803 ft 385 kts 98°
2026-05-09 04:03 49.32776 0.31950 24364 ft 384 kts 98°
2026-05-09 04:03 49.32509 0.36008 23919 ft 383 kts 98°
2026-05-09 04:03 49.32240 0.40069 23427 ft 383 kts 98°
2026-05-09 04:03 49.31967 0.44122 22918 ft 381 kts 98°
2026-05-09 04:04 49.31697 0.48152 22559 ft 376 kts 98°
2026-05-09 04:04 49.31487 0.52109 22197 ft 373 kts 95°
2026-05-09 04:04 49.31413 0.56076 21782 ft 371 kts 93°
2026-05-09 04:04 49.31392 0.60026 21344 ft 370 kts 92°
2026-05-09 04:05 49.31378 0.63965 20912 ft 369 kts 92°
2026-05-09 04:05 49.31356 0.67892 20480 ft 368 kts 92°
2026-05-09 04:05 49.31327 0.71802 20043 ft 367 kts 92°
2026-05-09 04:05 49.31288 0.75712 19606 ft 367 kts 92°
2026-05-09 04:06 49.31244 0.79619 19177 ft 366 kts 92°
2026-05-09 04:06 49.31197 0.83519 18743 ft 366 kts 92°
2026-05-09 04:06 49.31144 0.87425 18290 ft 367 kts 92°
2026-05-09 04:06 49.31091 0.91332 17795 ft 367 kts 92°
2026-05-09 04:07 49.31035 0.95243 17323 ft 366 kts 92°
2026-05-09 04:07 49.30979 0.99134 16871 ft 366 kts 92°
2026-05-09 04:07 49.30923 1.03028 16425 ft 365 kts 92°
2026-05-09 04:07 49.30866 1.06908 15978 ft 364 kts 92°
2026-05-09 04:08 49.30806 1.10781 15541 ft 363 kts 92°
2026-05-09 04:08 49.30745 1.14654 15104 ft 363 kts 92°
2026-05-09 04:08 49.30683 1.18519 14664 ft 363 kts 92°
2026-05-09 04:08 49.30619 1.22385 14226 ft 363 kts 92°
2026-05-09 04:09 49.30554 1.26252 13780 ft 363 kts 92°
2026-05-09 04:09 49.30489 1.30117 13296 ft 363 kts 92°
2026-05-09 04:09 49.30425 1.33923 12809 ft 347 kts 92°
2026-05-09 04:09 49.30361 1.37499 12401 ft 326 kts 92°
2026-05-09 04:10 49.30298 1.40973 12047 ft 327 kts 92°
2026-05-09 04:10 49.30235 1.44481 11646 ft 333 kts 91°
2026-05-09 04:10 49.30192 1.46837 11462 ft 334 kts 91°
2026-05-09 04:10 49.30105 1.51482 11286 ft 325 kts 92°
2026-05-09 04:11 49.30040 1.54889 11125 ft 316 kts 92°
2026-05-09 04:11 49.29966 1.58201 10972 ft 307 kts 93°
2026-05-09 04:11 49.29829 1.61424 10796 ft 300 kts 94°
2026-05-09 04:11 49.29678 1.64572 10626 ft 294 kts 94°
2026-05-09 04:12 49.29534 1.67677 10461 ft 292 kts 94°
2026-05-09 04:12 49.29438 1.69780 10364 ft 294 kts 94°
2026-05-09 04:12 49.29237 1.72825 10182 ft 289 kts 104°
2026-05-09 04:12 49.28333 1.75540 10006 ft 290 kts 133°
2026-05-09 04:13 49.26770 1.77418 9762 ft 285 kts 155°
2026-05-09 04:13 49.24976 1.78642 9559 ft 280 kts 158°
2026-05-09 04:13 49.23193 1.79810 9323 ft 277 kts 158°
2026-05-09 04:13 49.21435 1.80973 9109 ft 274 kts 158°
2026-05-09 04:14 49.19700 1.82128 8894 ft 271 kts 158°
2026-05-09 04:14 49.17983 1.83278 8670 ft 268 kts 157°
2026-05-09 04:14 49.16309 1.84478 8469 ft 263 kts 148°
2026-05-09 04:14 49.14927 1.86335 8294 ft 268 kts 135°
2026-05-09 04:15 49.13617 1.88404 8099 ft 273 kts 135°
2026-05-09 04:15 49.12286 1.90491 7868 ft 274 kts 135°
2026-05-09 04:15 49.10957 1.92558 7673 ft 272 kts 135°
2026-05-09 04:15 49.09633 1.94606 7462 ft 271 kts 135°
2026-05-09 04:16 49.09066 1.95480 7379 ft 270 kts 135°
2026-05-09 04:16 49.07712 1.97559 7160 ft 268 kts 136°
2026-05-09 04:16 49.06398 1.99568 6962 ft 266 kts 136°
2026-05-09 04:16 49.05096 2.01555 6758 ft 264 kts 136°
2026-05-09 04:17 49.03813 2.03512 6539 ft 258 kts 136°
2026-05-09 04:17 49.02561 2.05423 6348 ft 252 kts 136°
2026-05-09 04:17 49.01335 2.07288 6139 ft 245 kts 136°
2026-05-09 04:17 49.00153 2.09083 6005 ft 236 kts 136°
2026-05-09 04:18 48.99003 2.10823 5789 ft 229 kts 136°
2026-05-09 04:18 48.97897 2.12519 5590 ft 220 kts 131°
2026-05-09 04:18 48.97277 2.14550 5372 ft 210 kts 97°
2026-05-09 04:18 48.97246 2.16693 5233 ft 199 kts 90°
2026-05-09 04:19 48.97296 2.18780 5098 ft 195 kts 88°
2026-05-09 04:19 48.97385 2.20852 4933 ft 199 kts 86°
2026-05-09 04:19 48.97491 2.22947 4695 ft 197 kts 86°
2026-05-09 04:19 48.97602 2.25023 4418 ft 195 kts 86°
2026-05-09 04:20 48.97710 2.27042 4146 ft 187 kts 86°
2026-05-09 04:20 48.97811 2.28924 3897 ft 172 kts 86°
2026-05-09 04:20 48.97906 2.30714 3682 ft 170 kts 86°
2026-05-09 04:20 48.98002 2.32514 3466 ft 170 kts 86°
2026-05-09 04:21 48.98098 2.34286 3231 ft 163 kts 86°
2026-05-09 04:21 48.98185 2.35933 3033 ft 151 kts 86°
2026-05-09 04:21 48.98355 2.39123 2639 ft 151 kts 86°
2026-05-09 04:22 48.98442 2.40709 2427 ft 150 kts 86°
2026-05-09 04:22 48.98525 2.42280 2238 ft 148 kts 86°
2026-05-09 04:22 48.98612 2.43843 2060 ft 148 kts 86°
2026-05-09 04:22 48.98694 2.45397 1848 ft 148 kts 87°
2026-05-09 04:23 48.98771 2.46950 1628 ft 146 kts 86°
2026-05-09 04:23 48.98850 2.48468 1423 ft 146 kts 86°
2026-05-09 04:23 48.98934 2.50015 1254 ft 147 kts 85°
2026-05-09 04:23 48.99018 2.51575 1051 ft 149 kts 85°
2026-05-09 04:24 48.99102 2.53143 858 ft 149 kts 84°
2026-05-09 04:24 48.99188 2.54710 637 ft 148 kts 83°
2026-05-09 04:24 48.99273 2.56262 421 ft 146 kts 83°
2026-05-09 04:24 48.99354 2.57718 365 ft 131 kts 83°
2026-05-09 04:25 48.99415 2.58864 363 ft 82 kts 85°
2026-05-09 04:25 48.99450 2.59510 357 ft 52 kts 85°
2026-05-09 04:25 48.99478 2.59854 367 ft 25 kts 67°
2026-05-09 04:25 48.99619 2.59981 363 ft 23 kts 358°
2026-05-09 04:26 48.99778 2.59959 367 ft 23 kts 355°
2026-05-09 04:26 48.99922 2.60033 366 ft 23 kts 41°
2026-05-09 04:26 49.00023 2.60032 365 ft 11 kts 325°
2026-05-09 04:26 49.00084 2.59963 365 ft 11 kts 300°
2026-05-09 04:27 49.00092 2.59841 364 ft 12 kts 268°
2026-05-09 04:27 49.00085 2.59680 364 ft 20 kts 266°
2026-05-09 04:27 49.00074 2.59468 367 ft 20 kts 265°
2026-05-09 04:27 49.00064 2.59257 364 ft 20 kts 265°
2026-05-09 04:28 49.00052 2.59045 361 ft 20 kts 265°
2026-05-09 04:28 49.00040 2.58834 359 ft 20 kts 265°
2026-05-09 04:28 49.00029 2.58623 361 ft 20 kts 265°
2026-05-09 04:28 49.00017 2.58412 365 ft 20 kts 265°
2026-05-09 04:29 49.00005 2.58201 360 ft 20 kts 265°
2026-05-09 04:29 48.99995 2.57989 361 ft 20 kts 265°
2026-05-09 04:29 48.99986 2.57801 365 ft 12 kts 271°
2026-05-09 04:29 49.00052 2.57736 366 ft 13 kts 354°
2026-05-09 04:30 49.00111 2.57731 362 ft 3 kts 356°
2026-05-09 04:30 49.00131 2.57729 363 ft 3 kts 356°
2026-05-09 04:30 49.00139 2.57728 365 ft 0 kts 356°